| time (UTC) | temp C | wind direction | speed KPH | gust KPH | rain 1hr cm | rain 24hr cm | rain mn cm | humidity % | barometer mb |
| 20260504234245 | 26 | 142 | 3.2 | 4.8 | 0.00 | 0.51 | 0.51 | 44 | 980.4 |
| 20260504233741 | 26 | 205 | 1.6 | 3.2 | 0.00 | 0.51 | 0.51 | 44 | 980.4 |
| 20260504233237 | 26 | 312 | 1.6 | 6.4 | 0.00 | 0.51 | 0.51 | 44 | 980.5 |
| 20260504232734 | 26 | 259 | 3.2 | 3.2 | 0.00 | 0.51 | 0.51 | 43 | 980.2 |
| 20260504232231 | 26 | 221 | 1.6 | 1.6 | 0.00 | 0.51 | 0.51 | 44 | 980.2 |
| 20260504231728 | 26 | 134 | 3.2 | 3.2 | 0.00 | 0.51 | 0.51 | 43 | 980.5 |
| 20260504231224 | 26 | 245 | 1.6 | 4.8 | 0.00 | 0.51 | 0.51 | 42 | 980.4 |
| 20260504230720 | 26 | 116 | 1.6 | 6.4 | 0.00 | 0.51 | 0.51 | 43 | 980.5 |
| 20260504230219 | 26 | 304 | 4.8 | 4.8 | 0.00 | 0.51 | 0.51 | 42 | 980.3 |
| 20260504225718 | 26 | 170 | 3.2 | 9.7 | 0.00 | 0.51 | 0.51 | 43 | 980.5 |
| 20260504225214 | 26 | 187 | 6.4 | 9.7 | 0.00 | 0.51 | 0.51 | 42 | 980.6 |
| 20260504224711 | 26 | 133 | 3.2 | 4.8 | 0.00 | 0.51 | 0.51 | 44 | 980.8 |
| 20260504224208 | 26 | 294 | 3.2 | 9.7 | 0.00 | 0.51 | 0.51 | 41 | 980.5 |
| 20260504223704 | 26 | 165 | 3.2 | 6.4 | 0.00 | 0.51 | 0.51 | 42 | 980.6 |
| 20260504223200 | 26 | 166 | 3.2 | 9.7 | 0.00 | 0.51 | 0.51 | 41 | 980.5 |
| 20260504222657 | 26 | 141 | 6.4 | 17.7 | 0.00 | 0.51 | 0.51 | 42 | 980.8 |
| 20260504222154 | 26 | 124 | 4.8 | 14.5 | 0.00 | 0.51 | 0.51 | 41 | 980.7 |
| 20260504221651 | 26 | 301 | 4.8 | 9.7 | 0.00 | 0.51 | 0.51 | 42 | 980.6 |
| 20260504221148 | 26 | 142 | 8.0 | 11.3 | 0.00 | 0.51 | 0.51 | 41 | 980.7 |
| 20260504220644 | 26 | 207 | 4.8 | 6.4 | 0.00 | 0.51 | 0.51 | 41 | 980.8 |
| 20260504220142 | 26 | 303 | 6.4 | 11.3 | 0.00 | 0.51 | 0.51 | 39 | 980.7 |
| 20260504215638 | 26 | 260 | 6.4 | 16.1 | 0.00 | 0.51 | 0.51 | 41 | 980.7 |
| 20260504215136 | 26 | 139 | 9.7 | 14.5 | 0.00 | 0.51 | 0.51 | 40 | 980.6 |
| 20260504214632 | 26 | 248 | 4.8 | 11.3 | 0.00 | 0.51 | 0.51 | 41 | 980.8 |
| 20260504214128 | 27 | 282 | 11.3 | 17.7 | 0.00 | 0.51 | 0.51 | 40 | 980.7 |
| 20260504213625 | 27 | 307 | 8.0 | 12.9 | 0.00 | 0.51 | 0.51 | 39 | 980.8 |
| 20260504213122 | 27 | 239 | 6.4 | 16.1 | 0.00 | 0.51 | 0.51 | 39 | 980.7 |
| 20260504212618 | 28 | 171 | 11.3 | 16.1 | 0.00 | 0.51 | 0.51 | 38 | 980.7 |
| 20260504212115 | 27 | 135 | 4.8 | 11.3 | 0.00 | 0.51 | 0.51 | 41 | 980.7 |
| 20260504211612 | 28 | 160 | 4.8 | 9.7 | 0.00 | 0.51 | 0.51 | 42 | 980.6 |
| 20260504211109 | 28 | 246 | 6.4 | 12.9 | 0.00 | 0.51 | 0.51 | 40 | 980.6 |
| 20260504210607 | 28 | 119 | 8.0 | 16.1 | 0.00 | 0.51 | 0.51 | 40 | 980.7 |
| 20260504205601 | 28 | 196 | 3.2 | 16.1 | 0.00 | 0.51 | 0.51 | 41 | 980.8 |
| 20260504205058 | 28 | 309 | 9.7 | 14.5 | 0.00 | 0.51 | 0.51 | 43 | 980.7 |
| 20260504204556 | 28 | 289 | 6.4 | 9.7 | 0.00 | 0.51 | 0.51 | 42 | 980.9 |
| 20260504204055 | 27 | 182 | 3.2 | 6.4 | 0.00 | 0.51 | 0.51 | 43 | 980.9 |
| 20260504203553 | 27 | 40 | 6.4 | 12.9 | 0.00 | 0.51 | 0.51 | 41 | 980.8 |
| 20260504203050 | 27 | 154 | 4.8 | 16.1 | 0.00 | 0.51 | 0.51 | 43 | 980.8 |
| 20260504202545 | 27 | 298 | 8.0 | 17.7 | 0.00 | 0.51 | 0.51 | 42 | 980.9 |
| 20260504202042 | 27 | 188 | 6.4 | 16.1 | 0.00 | 0.51 | 0.51 | 42 | 981.4 |
| 20260504201539 | 27 | 242 | 8.0 | 11.3 | 0.00 | 0.51 | 0.51 | 43 | 981.3 |
| 20260504201037 | 27 | 134 | 9.7 | 17.7 | 0.00 | 0.51 | 0.51 | 43 | 981.3 |
| 20260504200533 | 27 | 155 | 3.2 | 17.7 | 0.00 | 0.51 | 0.51 | 49 | 981.3 |
| 20260504200030 | 27 | 4 | 6.4 | 9.7 | 0.00 | 0.51 | 0.51 | 44 | 981.7 |
| 20260504195526 | 26 | 184 | 3.2 | 12.9 | 0.00 | 0.51 | 0.51 | 49 | 981.9 |
| 20260504195023 | 26 | 138 | 3.2 | 12.9 | 0.00 | 0.51 | 0.51 | 47 | 981.8 |
| 20260504194519 | 26 | 131 | 1.6 | 11.3 | 0.00 | 0.51 | 0.51 | 50 | 981.8 |
| 20260504194015 | 26 | 203 | 4.8 | 11.3 | 0.00 | 0.51 | 0.51 | 50 | 981.9 |
| 20260504193512 | 26 | 194 | 8.0 | 11.3 | 0.00 | 0.51 | 0.51 | 51 | 981.8 |
| 20260504193011 | 25 | 197 | 3.2 | 3.2 | 0.00 | 0.51 | 0.51 | 55 | 981.9 |
| 20260504192508 | 24 | 233 | 1.6 | 4.8 | 0.00 | 0.51 | 0.51 | 57 | 982.0 |
| 20260504192006 | 23 | 92 | 1.6 | 3.2 | 0.00 | 0.51 | 0.51 | 63 | 981.9 |
| 20260504191504 | 23 | 172 | 3.2 | 6.4 | 0.00 | 0.51 | 0.51 | 64 | 982.1 |
| 20260504190959 | 22 | 193 | 3.2 | 11.3 | 0.00 | 0.51 | 0.51 | 67 | 981.8 |
| 20260504190455 | 22 | 219 | 1.6 | 3.2 | 0.00 | 0.51 | 0.51 | 67 | 982.3 |
| 20260504185952 | 22 | 143 | 1.6 | 3.2 | 0.00 | 0.51 | 0.51 | 69 | 982.4 |
| 20260504185449 | 22 | 314 | 3.2 | 9.7 | 0.00 | 0.51 | 0.51 | 65 | 982.4 |
| 20260504184945 | 21 | 171 | 3.2 | 6.4 | 0.00 | 0.51 | 0.51 | 68 | 982.4 |
| 20260504184441 | 18 | 185 | 3.2 | 3.2 | 0.00 | 0.51 | 0.51 | 87 | 982.1 |
| 20260504183937 | 17 | 86 | 0.0 | 0.0 | 0.00 | 0.51 | 0.51 | 91 | 981.7 |
| 20260504183434 | 17 | 92 | 0.0 | 0.0 | 0.00 | 0.51 | 0.51 | 89 | 981.9 |
| 20260504182932 | 16 | 94 | 0.0 | 0.0 | 0.00 | 0.51 | 0.51 | 88 | 982.2 |
| 20260504182429 | 16 | 94 | 0.0 | 1.6 | 0.00 | 0.51 | 0.51 | 88 | 982.8 |
| 20260504181926 | 16 | 125 | 1.6 | 1.6 | 0.00 | 0.51 | 0.51 | 88 | 983.0 |
| 20260504181423 | 16 | 126 | 0.0 | 1.6 | 0.00 | 0.51 | 0.51 | 88 | 983.6 |
| 20260504180922 | 17 | 126 | 0.0 | 0.0 | 0.00 | 0.51 | 0.51 | 88 | 983.3 |
| 20260504180420 | 17 | 126 | 0.0 | 1.6 | 0.00 | 0.51 | 0.51 | 87 | 983.1 |
| 20260504175918 | 17 | 128 | 0.0 | 0.0 | 0.00 | 0.51 | 0.51 | 87 | 983.2 |
| 20260504175415 | 17 | 129 | 0.0 | 0.0 | 0.00 | 0.51 | 0.51 | 89 | 983.0 |
| 20260504174912 | 17 | 129 | 0.0 | 0.0 | 0.00 | 0.51 | 0.51 | 90 | 983.3 |
| 20260504174410 | 17 | 129 | 0.0 | 0.0 | 0.00 | 0.51 | 0.51 | 90 | 983.3 |
| 20260504173907 | 17 | 134 | 0.0 | 0.0 | 0.00 | 0.51 | 0.51 | 89 | 983.1 |
| 20260504173403 | 17 | 135 | 0.0 | 0.0 | 0.00 | 0.51 | 0.51 | 88 | 983.4 |
| 20260504172900 | 16 | 135 | 0.0 | 0.0 | 0.00 | 0.51 | 0.51 | 89 | 983.6 |
| 20260504172357 | 16 | 135 | 0.0 | 0.0 | 0.00 | 0.51 | 0.51 | 91 | 983.8 |
| 20260504171853 | 16 | 135 | 0.0 | 1.6 | 0.00 | 0.51 | 0.51 | 90 | 983.8 |
| 20260504171350 | 16 | 140 | 0.0 | 0.0 | 0.00 | 0.51 | 0.51 | 90 | 984.0 |
| 20260504170847 | 16 | 116 | 0.0 | 0.0 | 0.00 | 0.51 | 0.51 | 89 | 983.7 |
| 20260504170344 | 16 | 116 | 0.0 | 0.0 | 0.00 | 0.51 | 0.51 | 90 | 983.7 |
| 20260504160302 | 14 | 85 | 1.6 | 1.6 | 0.23 | 0.51 | 0.51 | 92 | 984.6 |
| 20260504150728 | 17 | 168 | 0.0 | 0.0 | 0.00 | 0.00 | 0.00 | 62 | 985.6 |
| 20260504150225 | 17 | 168 | 0.0 | 0.0 | 0.00 | 0.00 | 0.00 | 63 | 985.7 |
| 20260504141154 | 18 | 246 | 3.2 | 6.4 | 0.00 | 0.00 | 0.00 | 58 | 985.3 |
| 20260504140650 | 18 | 257 | 3.2 | 4.8 | 0.00 | 0.00 | 0.00 | 58 | 985.3 |
| 20260504140146 | 18 | 239 | 1.6 | 3.2 | 0.00 | 0.00 | 0.00 | 60 | 985.3 |
| 20260504130614 | 14 | 116 | 0.0 | 1.6 | 0.00 | 0.00 | 0.00 | 78 | 985.9 |
| 20260504130111 | 14 | 104 | 0.0 | 0.0 | 0.00 | 0.00 | 0.00 | 79 | 985.8 |
| 20260504110503 | 13 | 105 | 0.0 | 0.0 | 0.00 | 0.00 | 0.00 | 78 | 986.2 |
| 20260504100424 | 13 | 105 | 0.0 | 0.0 | 0.00 | 0.00 | 0.00 | 75 | 986.3 |
| 20260504081817 | 16 | 130 | 0.0 | 0.0 | 0.00 | 0.00 | 0.00 | 60 | 986.3 |
| 20260504081314 | 16 | 129 | 0.0 | 0.0 | 0.00 | 0.00 | 0.00 | 60 | 986.4 |
| 20260504080810 | 16 | 129 | 0.0 | 0.0 | 0.00 | 0.00 | 0.00 | 60 | 986.2 |
| 20260504080308 | 17 | 129 | 0.0 | 0.0 | 0.00 | 0.00 | 0.00 | 59 | 986.1 |
| 20260504070235 | 17 | 141 | 1.6 | 1.6 | 0.00 | 0.00 | 0.00 | 54 | 985.9 |
| 20260504060155 | 18 | 14 | 4.8 | 9.7 | 0.00 | 0.00 | 0.00 | 54 | 986.4 |
| 20260504050623 | 18 | 142 | 1.6 | 1.6 | 0.00 | 0.00 | 0.00 | 53 | 986.3 |
| 20260504050120 | 18 | 354 | 1.6 | 1.6 | 0.00 | 0.00 | 0.00 | 54 | 986.5 |
| 20260504045617 | 18 | 244 | 1.6 | 1.6 | 0.00 | 0.00 | 0.00 | 56 | 986.6 |
| 20260504045112 | 18 | 263 | 0.0 | 3.2 | 0.00 | 0.00 | 0.00 | 54 | 986.5 |
| 20260504044610 | 18 | 171 | 0.0 | 0.0 | 0.00 | 0.00 | 0.00 | 54 | 986.7 |
| 20260504044107 | 18 | 171 | 0.0 | 0.0 | 0.00 | 0.00 | 0.00 | 53 | 986.7 |
| 20260504043604 | 19 | 172 | 0.0 | 0.0 | 0.00 | 0.00 | 0.00 | 53 | 986.8 |
| 20260504043101 | 19 | 172 | 0.0 | 1.6 | 0.00 | 0.00 | 0.00 | 52 | 986.7 |
| 20260504042558 | 19 | 172 | 1.6 | 1.6 | 0.00 | 0.00 | 0.00 | 53 | 986.8 |
| 20260504042055 | 19 | 120 | 0.0 | 0.0 | 0.00 | 0.00 | 0.00 | 53 | 987.1 |
| 20260504041550 | 19 | 120 | 0.0 | 0.0 | 0.00 | 0.00 | 0.00 | 53 | 986.9 |
| 20260504041047 | 19 | 129 | 0.0 | 0.0 | 0.00 | 0.00 | 0.00 | 54 | 987.4 |
| 20260504040545 | 19 | 129 | 0.0 | 1.6 | 0.00 | 0.00 | 0.00 | 52 | 987.3 |
| 20260504040041 | 19 | 118 | 0.0 | 1.6 | 0.00 | 0.00 | 0.00 | 52 | 987.3 |
| 20260504035538 | 19 | 136 | 0.0 | 0.0 | 0.00 | 0.00 | 0.00 | 53 | 986.9 |
| 20260504035034 | 19 | 324 | 1.6 | 1.6 | 0.00 | 0.00 | 0.00 | 52 | 987.0 |
| 20260504034533 | 19 | 152 | 0.0 | 0.0 | 0.00 | 0.00 | 0.00 | 54 | 987.1 |
| 20260504034029 | 19 | 180 | 0.0 | 1.6 | 0.00 | 0.00 | 0.00 | 55 | 987.4 |
| 20260504033527 | 19 | 177 | 0.0 | 0.0 | 0.00 | 0.00 | 0.00 | 54 | 987.3 |
| 20260504033024 | 19 | 179 | 0.0 | 1.6 | 0.00 | 0.00 | 0.00 | 52 | 987.5 |
| 20260504032521 | 19 | 235 | 0.0 | 1.6 | 0.00 | 0.00 | 0.00 | 53 | 987.2 |
| 20260504032018 | 20 | 204 | 1.6 | 3.2 | 0.00 | 0.00 | 0.00 | 53 | 987.0 |
| 20260504031515 | 20 | 193 | 3.2 | 4.8 | 0.00 | 0.00 | 0.00 | 51 | 987.1 |
| 20260504031011 | 20 | 92 | 0.0 | 0.0 | 0.00 | 0.00 | 0.00 | 49 | 988.1 |
| 20260504030508 | 20 | 91 | 0.0 | 0.0 | 0.00 | 0.00 | 0.00 | 47 | 987.9 |
| 20260504030004 | 21 | 91 | 0.0 | 0.0 | 0.00 | 0.00 | 0.00 | 47 | 988.0 |
| 20260504025501 | 21 | 134 | 0.0 | 1.6 | 0.00 | 0.00 | 0.00 | 47 | 987.8 |
| 20260504024958 | 21 | 150 | 0.0 | 0.0 | 0.00 | 0.00 | 0.00 | 47 | 987.5 |
| 20260504024455 | 21 | 149 | 1.6 | 1.6 | 0.00 | 0.00 | 0.00 | 47 | 987.7 |
| 20260504023952 | 21 | 150 | 0.0 | 0.0 | 0.00 | 0.00 | 0.00 | 47 | 987.5 |
| 20260504023449 | 21 | 148 | 0.0 | 0.0 | 0.00 | 0.00 | 0.00 | 45 | 987.4 |
| 20260504022944 | 21 | 148 | 0.0 | 0.0 | 0.00 | 0.00 | 0.00 | 44 | 987.3 |
| 20260504022441 | 21 | 147 | 0.0 | 3.2 | 0.00 | 0.00 | 0.00 | 43 | 987.3 |
| 20260504021937 | 21 | 136 | 0.0 | 0.0 | 0.00 | 0.00 | 0.00 | 43 | 987.1 |
| 20260504021435 | 21 | 151 | 0.0 | 0.0 | 0.00 | 0.00 | 0.00 | 42 | 987.3 |
| 20260504020932 | 21 | 163 | 0.0 | 1.6 | 0.00 | 0.00 | 0.00 | 42 | 987.0 |
| 20260504020428 | 21 | 118 | 0.0 | 1.6 | 0.00 | 0.00 | 0.00 | 42 | 987.2 |
| 20260504015925 | 20 | 118 | 1.6 | 1.6 | 0.00 | 0.00 | 0.00 | 44 | 987.0 |
| 20260504015421 | 20 | 115 | 0.0 | 0.0 | 0.00 | 0.00 | 0.00 | 47 | 987.2 |
| 20260504014917 | 20 | 115 | 0.0 | 0.0 | 0.00 | 0.00 | 0.00 | 46 | 987.1 |
| 20260504014413 | 20 | 115 | 1.6 | 1.6 | 0.00 | 0.00 | 0.00 | 47 | 987.1 |
| 20260504013910 | 22 | 129 | 0.0 | 0.0 | 0.00 | 0.00 | 0.00 | 47 | 987.0 |
| 20260504013409 | 22 | 133 | 0.0 | 0.0 | 0.00 | 0.00 | 0.00 | 42 | 987.0 |
| 20260504012904 | 22 | 133 | 0.0 | 0.0 | 0.00 | 0.00 | 0.00 | 41 | 986.7 |
| 20260504012403 | 22 | 132 | 1.6 | 1.6 | 0.00 | 0.00 | 0.00 | 40 | 986.7 |
| 20260504011900 | 22 | 145 | 1.6 | 1.6 | 0.00 | 0.00 | 0.00 | 39 | 986.8 |
| 20260504011356 | 23 | 144 | 0.0 | 0.0 | 0.00 | 0.00 | 0.00 | 39 | 986.9 |
| 20260504010852 | 23 | 131 | 0.0 | 0.0 | 0.00 | 0.00 | 0.00 | 39 | 986.8 |
| 20260504010348 | 23 | 96 | 3.2 | 3.2 | 0.00 | 0.00 | 0.00 | 38 | 986.8 |
| 20260504005845 | 23 | 145 | 0.0 | 1.6 | 0.00 | 0.00 | 0.00 | 39 | 986.6 |
| 20260504005341 | 23 | 147 | 0.0 | 0.0 | 0.00 | 0.00 | 0.00 | 37 | 986.6 |
| 20260504004839 | 23 | 158 | 0.0 | 4.8 | 0.00 | 0.00 | 0.00 | 37 | 986.7 |
| 20260504004337 | 24 | 144 | 0.0 | 1.6 | 0.00 | 0.00 | 0.00 | 37 | 986.7 |
| 20260504003833 | 24 | 190 | 1.6 | 1.6 | 0.00 | 0.00 | 0.00 | 36 | 986.5 |
| 20260504003330 | 24 | 267 | 1.6 | 1.6 | 0.00 | 0.00 | 0.00 | 36 | 986.6 |
| 20260504002827 | 24 | 180 | 0.0 | 3.2 | 0.00 | 0.00 | 0.00 | 36 | 986.9 |
| 20260504002323 | 24 | 159 | 1.6 | 4.8 | 0.00 | 0.00 | 0.00 | 35 | 986.5 |
| 20260504001821 | 25 | 114 | 3.2 | 4.8 | 0.00 | 0.00 | 0.00 | 34 | 986.5 |
| 20260504001318 | 25 | 163 | 4.8 | 4.8 | 0.00 | 0.00 | 0.00 | 34 | 986.6 |
| 20260504000815 | 25 | 152 | 3.2 | 4.8 | 0.00 | 0.00 | 0.00 | 34 | 986.7 |
| 20260504000312 | 25 | 276 | 3.2 | 4.8 | 0.00 | 0.00 | 0.00 | 34 | 986.5 |
| 20260503235810 | 25 | 181 | 3.2 | 4.8 | 0.00 | 0.00 | 0.00 | 34 | 986.7 |
| 20260503235307 | 25 | 120 | 3.2 | 9.7 | 0.00 | 0.00 | 0.00 | 34 | 986.6 |
| 20260503234805 | 25 | 280 | 8.0 | 11.3 | 0.00 | 0.00 | 0.00 | 32 | 986.9 |